Time,TemperatureF,DewpointF,PressureIn,WindDirection,WindDirectionDegrees,WindSpeedMPH,WindSpeedGustMPH,Humidity,HourlyPrecipIn,Conditions,Clouds,dailyrainin,SoftwareType,DateUTC
2013-09-30 00:02:00,51.1,44.5,31.87,North,6,0.0,0.0,78,0.00,,,0.00,VWS V14.01,2013-09-30 04:02:00,
2013-09-30 00:03:00,51.1,44.5,31.87,North,6,0.0,0.0,78,0.00,,,0.00,VWS V14.01,2013-09-30 04:03:00,
2013-09-30 00:06:00,51.1,44.5,31.87,North,6,0.0,0.0,78,0.00,,,0.00,VWS V14.01,2013-09-30 04:06:00,
2013-09-30 00:08:00,51.1,44.5,31.87,North,6,0.0,0.0,78,0.00,,,0.00,VWS V14.01,2013-09-30 04:08:00,
2013-09-30 00:14:00,50.9,44.3,31.87,North,6,0.0,0.0,78,0.00,,,0.00,VWS V14.01,2013-09-30 04:14:00,
2013-09-30 00:19:00,50.7,44.1,31.87,North,6,0.0,0.0,78,0.00,,,0.00,VWS V14.01,2013-09-30 04:19:00,
2013-09-30 00:24:00,50.7,44.1,31.87,North,6,0.0,0.0,78,0.00,,,0.00,VWS V14.01,2013-09-30 04:24:00,
2013-09-30 00:29:00,50.5,44.0,31.87,North,6,0.0,0.0,78,0.00,,,0.00,VWS V14.01,2013-09-30 04:29:00,
2013-09-30 00:36:00,50.4,43.8,31.87,North,6,0.0,0.0,78,0.00,,,0.00,VWS V14.01,2013-09-30 04:36:00,
2013-09-30 00:42:00,50.4,43.8,31.87,North,6,0.0,0.0,78,0.00,,,0.00,VWS V14.01,2013-09-30 04:42:00,
2013-09-30 00:48:00,50.2,43.6,31.87,North,6,0.0,0.0,78,0.00,,,0.00,VWS V14.01,2013-09-30 04:48:00,
2013-09-30 00:53:00,50.2,43.9,31.87,North,6,0.0,0.0,79,0.00,,,0.00,VWS V14.01,2013-09-30 04:53:00,
2013-09-30 00:59:00,50.0,43.8,31.87,North,6,0.0,0.0,79,0.00,,,0.00,VWS V14.01,2013-09-30 04:59:00,
2013-09-30 01:06:00,49.8,43.6,31.87,North,6,0.0,0.0,79,0.00,,,0.00,VWS V14.01,2013-09-30 05:06:00,
2013-09-30 01:12:00,49.6,43.4,31.87,North,6,0.0,0.0,79,0.00,,,0.00,VWS V14.01,2013-09-30 05:12:00,
2013-09-30 01:17:00,49.6,43.4,31.87,North,6,0.0,0.0,79,0.00,,,0.00,VWS V14.01,2013-09-30 05:17:00,
2013-09-30 01:23:00,49.5,43.2,31.87,North,6,0.0,0.0,79,0.00,,,0.00,VWS V14.01,2013-09-30 05:23:00,
2013-09-30 01:28:00,49.5,43.2,31.87,North,6,0.0,0.0,79,0.00,,,0.00,VWS V14.01,2013-09-30 05:28:00,
2013-09-30 01:33:00,49.3,43.0,31.87,North,6,0.0,0.0,79,0.00,,,0.00,VWS V14.01,2013-09-30 05:33:00,
2013-09-30 01:38:00,49.3,43.4,31.87,North,6,0.0,0.0,80,0.00,,,0.00,VWS V14.01,2013-09-30 05:38:00,
2013-09-30 01:43:00,49.1,43.2,31.87,North,6,0.0,0.0,80,0.00,,,0.00,VWS V14.01,2013-09-30 05:43:00,
2013-09-30 01:48:00,49.1,43.2,31.87,North,6,0.0,0.0,80,0.00,,,0.00,VWS V14.01,2013-09-30 05:48:00,
2013-09-30 01:54:00,48.9,43.0,31.87,North,6,0.0,0.0,80,0.00,,,0.00,VWS V14.01,2013-09-30 05:54:00,
2013-09-30 01:59:00,48.7,42.9,31.87,North,6,0.0,0.0,80,0.00,,,0.00,VWS V14.01,2013-09-30 05:59:00,
2013-09-30 02:06:00,48.7,42.9,31.87,North,6,0.0,0.0,80,0.00,,,0.00,VWS V14.01,2013-09-30 06:06:00,
2013-09-30 02:11:00,48.7,42.9,31.87,North,6,0.0,0.0,80,0.00,,,0.00,VWS V14.01,2013-09-30 06:11:00,
2013-09-30 02:16:00,48.6,42.7,31.87,North,6,0.0,0.0,80,0.00,,,0.00,VWS V14.01,2013-09-30 06:16:00,
2013-09-30 02:22:00,48.6,42.7,31.87,North,6,0.0,0.0,80,0.00,,,0.00,VWS V14.01,2013-09-30 06:22:00,
2013-09-30 02:27:00,48.7,42.9,31.87,North,6,0.0,0.0,80,0.00,,,0.00,VWS V14.01,2013-09-30 06:27:00,
2013-09-30 02:32:00,48.6,43.0,31.87,North,6,0.0,0.0,81,0.00,,,0.00,VWS V14.01,2013-09-30 06:32:00,
2013-09-30 02:37:00,48.6,43.0,31.87,North,6,0.0,0.0,81,0.00,,,0.00,VWS V14.01,2013-09-30 06:37:00,
2013-09-30 02:43:00,48.6,43.0,31.87,North,6,0.0,0.0,81,0.00,,,0.00,VWS V14.01,2013-09-30 06:43:00,
2013-09-30 02:48:00,48.4,42.8,31.87,North,6,0.0,0.0,81,0.00,,,0.00,VWS V14.01,2013-09-30 06:48:00,
2013-09-30 02:54:00,48.4,42.8,31.87,North,6,0.0,0.0,81,0.00,,,0.00,VWS V14.01,2013-09-30 06:54:00,
2013-09-30 02:59:00,48.2,42.7,31.87,North,6,0.0,0.0,81,0.00,,,0.00,VWS V14.01,2013-09-30 06:59:00,
2013-09-30 03:04:00,48.2,42.7,31.87,North,6,0.0,0.0,81,0.00,,,0.00,VWS V14.01,2013-09-30 07:04:00,
2013-09-30 03:09:00,48.0,42.8,31.87,North,6,0.0,0.0,82,0.00,,,0.00,VWS V14.01,2013-09-30 07:09:00,
2013-09-30 03:14:00,47.8,42.3,31.87,North,6,0.0,0.0,81,0.00,,,0.00,VWS V14.01,2013-09-30 07:14:00,
2013-09-30 03:21:00,47.8,42.6,31.87,North,6,0.0,0.0,82,0.00,,,0.00,VWS V14.01,2013-09-30 07:21:00,
2013-09-30 03:26:00,47.8,42.6,31.87,North,6,0.0,0.0,82,0.00,,,0.00,VWS V14.01,2013-09-30 07:26:00,
2013-09-30 03:31:00,48.0,42.8,31.87,North,6,0.0,0.0,82,0.00,,,0.00,VWS V14.01,2013-09-30 07:31:00,
2013-09-30 03:36:00,48.2,43.0,31.87,North,6,0.0,0.0,82,0.00,,,0.00,VWS V14.01,2013-09-30 07:36:00,
2013-09-30 03:41:00,48.2,43.0,31.87,North,6,0.0,0.0,82,0.00,,,0.00,VWS V14.01,2013-09-30 07:41:00,
2013-09-30 03:47:00,48.4,43.2,31.87,North,6,0.0,0.0,82,0.00,,,0.00,VWS V14.01,2013-09-30 07:47:00,
2013-09-30 03:53:00,48.4,43.2,31.87,North,6,0.0,0.0,82,0.00,,,0.00,VWS V14.01,2013-09-30 07:53:00,
2013-09-30 03:58:00,48.4,43.2,31.87,North,6,0.0,0.0,82,0.00,,,0.00,VWS V14.01,2013-09-30 07:58:00,
2013-09-30 04:04:00,48.2,43.0,31.87,North,6,0.0,0.0,82,0.00,,,0.00,VWS V14.01,2013-09-30 08:04:00,
2013-09-30 04:09:00,48.2,43.0,31.87,North,6,0.0,0.0,82,0.00,,,0.00,VWS V14.01,2013-09-30 08:09:00,
2013-09-30 04:14:00,48.2,43.0,31.87,North,6,0.0,0.0,82,0.00,,,0.00,VWS V14.01,2013-09-30 08:14:00,
2013-09-30 04:19:00,48.0,43.1,31.87,North,6,0.0,0.0,83,0.00,,,0.00,VWS V14.01,2013-09-30 08:19:00,
2013-09-30 04:25:00,48.2,43.0,31.87,North,6,0.0,0.0,82,0.00,,,0.00,VWS V14.01,2013-09-30 08:25:00,
2013-09-30 04:31:00,48.2,43.0,31.87,North,6,0.0,0.0,82,0.00,,,0.00,VWS V14.01,2013-09-30 08:31:00,
2013-09-30 04:36:00,48.2,43.0,31.87,North,6,0.0,0.0,82,0.00,,,0.00,VWS V14.01,2013-09-30 08:36:00,
2013-09-30 04:42:00,48.0,43.1,31.87,North,6,0.0,0.0,83,0.00,,,0.00,VWS V14.01,2013-09-30 08:42:00,
2013-09-30 04:48:00,48.0,43.1,31.87,North,6,0.0,0.0,83,0.00,,,0.00,VWS V14.01,2013-09-30 08:48:00,
2013-09-30 04:53:00,48.0,43.1,31.87,North,6,0.0,0.0,83,0.00,,,0.00,VWS V14.01,2013-09-30 08:53:00,
2013-09-30 04:58:00,48.0,43.1,31.87,North,6,0.0,0.0,83,0.00,,,0.00,VWS V14.01,2013-09-30 08:58:00,
2013-09-30 05:04:00,48.0,43.1,31.87,North,6,0.0,0.0,83,0.00,,,0.00,VWS V14.01,2013-09-30 09:04:00,
2013-09-30 05:09:00,48.0,43.1,31.87,North,6,0.0,0.0,83,0.00,,,0.00,VWS V14.01,2013-09-30 09:09:00,
2013-09-30 05:15:00,47.8,42.9,31.87,North,6,0.0,0.0,83,0.00,,,0.00,VWS V14.01,2013-09-30 09:15:00,
2013-09-30 05:21:00,47.8,42.9,31.87,North,6,0.0,0.0,83,0.00,,,0.00,VWS V14.01,2013-09-30 09:21:00,
2013-09-30 05:26:00,47.7,42.8,31.87,North,6,0.0,0.0,83,0.00,,,0.00,VWS V14.01,2013-09-30 09:26:00,
2013-09-30 05:32:00,47.8,42.9,31.87,North,6,0.0,0.0,83,0.00,,,0.00,VWS V14.01,2013-09-30 09:32:00,
2013-09-30 05:37:00,48.0,43.1,31.87,North,6,0.0,0.0,83,0.00,,,0.00,VWS V14.01,2013-09-30 09:37:00,
2013-09-30 05:42:00,48.0,43.4,31.87,North,6,0.0,0.0,84,0.00,,,0.00,VWS V14.01,2013-09-30 09:42:00,
2013-09-30 05:47:00,48.4,43.5,31.87,North,6,0.0,0.0,83,0.00,,,0.00,VWS V14.01,2013-09-30 09:47:00,
2013-09-30 05:52:00,48.4,43.8,31.87,North,6,0.0,0.0,84,0.00,,,0.00,VWS V14.01,2013-09-30 09:52:00,
2013-09-30 05:57:00,48.4,43.8,31.87,North,6,0.0,0.0,84,0.00,,,0.00,VWS V14.01,2013-09-30 09:57:00,
2013-09-30 06:03:00,48.4,43.8,31.87,North,6,0.0,0.0,84,0.00,,,0.00,VWS V14.01,2013-09-30 10:03:00,
2013-09-30 06:08:00,48.2,43.6,31.87,North,6,0.0,0.0,84,0.00,,,0.00,VWS V14.01,2013-09-30 10:08:00,
2013-09-30 06:13:00,48.2,43.3,31.87,North,6,0.0,0.0,83,0.00,,,0.00,VWS V14.01,2013-09-30 10:13:00,
2013-09-30 06:19:00,48.0,43.4,31.87,North,6,0.0,0.0,84,0.00,,,0.00,VWS V14.01,2013-09-30 10:19:00,
2013-09-30 06:25:00,48.0,43.4,31.87,North,6,0.0,0.0,84,0.00,,,0.00,VWS V14.01,2013-09-30 10:25:00,
2013-09-30 06:30:00,48.0,43.4,31.87,North,6,0.0,0.0,84,0.00,,,0.00,VWS V14.01,2013-09-30 10:30:00,
2013-09-30 06:35:00,48.0,43.4,31.87,North,6,0.0,0.0,84,0.00,,,0.00,VWS V14.01,2013-09-30 10:35:00,
2013-09-30 06:41:00,47.8,43.2,31.87,North,6,0.0,0.0,84,0.00,,,0.00,VWS V14.01,2013-09-30 10:41:00,
2013-09-30 06:46:00,47.8,43.2,31.87,North,6,0.0,0.0,84,0.00,,,0.00,VWS V14.01,2013-09-30 10:46:00,
2013-09-30 06:52:00,47.8,42.9,31.87,North,6,0.0,0.0,83,0.00,,,0.00,VWS V14.01,2013-09-30 10:52:00,
2013-09-30 06:57:00,48.0,43.4,31.87,North,6,0.0,0.0,84,0.00,,,0.00,VWS V14.01,2013-09-30 10:57:00,
2013-09-30 07:03:00,48.0,43.4,31.87,North,6,0.0,0.0,84,0.00,,,0.00,VWS V14.01,2013-09-30 11:03:00,
2013-09-30 07:08:00,47.8,43.2,31.87,North,6,0.0,0.0,84,0.00,,,0.00,VWS V14.01,2013-09-30 11:08:00,
2013-09-30 07:14:00,47.3,42.4,31.87,North,6,0.0,0.0,83,0.00,,,0.00,VWS V14.01,2013-09-30 11:14:00,
2013-09-30 07:19:00,47.3,42.4,31.87,North,6,0.0,0.0,83,0.00,,,0.00,VWS V14.01,2013-09-30 11:19:00,
2013-09-30 07:24:00,47.1,42.2,31.87,North,6,0.0,0.0,83,0.00,,,0.00,VWS V14.01,2013-09-30 11:24:00,
2013-09-30 07:29:00,46.9,42.0,31.87,North,6,0.0,0.0,83,0.00,,,0.00,VWS V14.01,2013-09-30 11:29:00,
2013-09-30 07:35:00,47.1,42.2,31.87,North,6,0.0,0.0,83,0.00,,,0.00,VWS V14.01,2013-09-30 11:35:00,
2013-09-30 07:41:00,47.1,42.5,31.87,North,6,0.0,0.0,84,0.00,,,0.00,VWS V14.01,2013-09-30 11:41:00,
2013-09-30 07:46:00,47.1,42.5,31.87,North,6,0.0,0.0,84,0.00,,,0.00,VWS V14.01,2013-09-30 11:46:00,
2013-09-30 07:51:00,46.9,42.4,31.87,North,6,0.0,0.0,84,0.00,,,0.00,VWS V14.01,2013-09-30 11:51:00,
2013-09-30 07:56:00,47.1,42.5,31.87,North,6,0.0,0.0,84,0.00,,,0.00,VWS V14.01,2013-09-30 11:56:00,
2013-09-30 08:01:00,47.3,42.7,31.87,North,6,0.0,0.0,84,0.00,,,0.00,VWS V14.01,2013-09-30 12:01:00,
2013-09-30 08:07:00,47.3,42.7,31.87,North,6,0.0,0.0,84,0.00,,,0.00,VWS V14.01,2013-09-30 12:07:00,
2013-09-30 08:13:00,47.3,43.0,31.87,North,6,0.0,0.0,85,0.00,,,0.00,VWS V14.01,2013-09-30 12:13:00,
2013-09-30 08:18:00,47.3,43.0,31.87,North,6,0.0,0.0,85,0.00,,,0.00,VWS V14.01,2013-09-30 12:18:00,
2013-09-30 08:24:00,47.5,43.2,31.87,North,6,0.0,0.0,85,0.00,,,0.00,VWS V14.01,2013-09-30 12:24:00,
2013-09-30 08:29:00,47.7,43.4,31.87,North,6,0.0,0.0,85,0.00,,,0.00,VWS V14.01,2013-09-30 12:29:00,
2013-09-30 08:34:00,48.0,43.7,31.87,North,6,0.0,0.0,85,0.00,,,0.00,VWS V14.01,2013-09-30 12:34:00,
2013-09-30 08:40:00,48.2,43.9,31.87,North,6,0.0,0.0,85,0.00,,,0.00,VWS V14.01,2013-09-30 12:40:00,
2013-09-30 08:45:00,48.4,44.1,31.87,North,6,0.0,0.0,85,0.00,,,0.00,VWS V14.01,2013-09-30 12:45:00,
2013-09-30 08:51:00,48.7,44.4,31.87,North,6,0.0,0.0,85,0.00,,,0.00,VWS V14.01,2013-09-30 12:51:00,
2013-09-30 08:56:00,48.9,44.6,31.87,North,6,0.0,0.0,85,0.00,,,0.00,VWS V14.01,2013-09-30 12:56:00,
2013-09-30 09:02:00,49.3,45.3,31.87,North,6,0.0,0.0,86,0.00,,,0.00,VWS V14.01,2013-09-30 13:02:00,
2013-09-30 09:07:00,49.6,45.6,31.87,North,6,0.0,0.0,86,0.00,,,0.00,VWS V14.01,2013-09-30 13:07:00,
2013-09-30 09:12:00,50.0,46.0,31.87,North,6,0.0,0.0,86,0.00,,,0.00,VWS V14.01,2013-09-30 13:12:00,
2013-09-30 09:17:00,50.2,46.2,31.87,North,6,0.0,0.0,86,0.00,,,0.00,VWS V14.01,2013-09-30 13:17:00,
2013-09-30 09:22:00,50.5,46.5,31.87,North,6,0.0,0.0,86,0.00,,,0.00,VWS V14.01,2013-09-30 13:22:00,
2013-09-30 09:27:00,50.9,46.9,31.87,South,177,3.4,5.6,86,0.00,,,0.00,VWS V14.01,2013-09-30 13:27:00,
2013-09-30 09:33:00,51.4,47.7,31.87,South,186,0.0,0.0,87,0.00,,,0.00,VWS V14.01,2013-09-30 13:33:00,
2013-09-30 09:38:00,51.6,47.9,31.87,South,186,0.0,0.0,87,0.00,,,0.00,VWS V14.01,2013-09-30 13:38:00,
2013-09-30 09:44:00,52.2,48.4,31.87,South,186,0.0,0.0,87,0.00,,,0.00,VWS V14.01,2013-09-30 13:44:00,
2013-09-30 09:49:00,52.7,49.0,31.87,South,186,0.0,0.0,87,0.00,,,0.00,VWS V14.01,2013-09-30 13:49:00,
2013-09-30 09:55:00,53.1,49.6,31.87,SW,231,0.0,0.0,88,0.00,,,0.00,VWS V14.01,2013-09-30 13:55:00,
2013-09-30 10:01:00,53.6,49.8,31.87,SSW,198,0.0,0.0,87,0.00,,,0.00,VWS V14.01,2013-09-30 14:01:00,
2013-09-30 10:06:00,54.1,50.7,31.87,SSW,198,0.0,0.0,88,0.00,,,0.00,VWS V14.01,2013-09-30 14:06:00,
2013-09-30 10:11:00,54.5,51.0,31.87,WNW,285,0.0,0.0,88,0.00,,,0.00,VWS V14.01,2013-09-30 14:11:00,
2013-09-30 10:16:00,54.9,51.4,31.87,SW,225,0.0,0.0,88,0.00,,,0.00,VWS V14.01,2013-09-30 14:16:00,
2013-09-30 10:21:00,55.2,51.7,31.87,South,177,0.0,0.0,88,0.00,,,0.00,VWS V14.01,2013-09-30 14:21:00,
2013-09-30 10:26:00,55.8,52.3,31.87,SSW,208,0.0,0.0,88,0.00,,,0.00,VWS V14.01,2013-09-30 14:26:00,
2013-09-30 10:32:00,56.1,52.6,31.87,West,279,0.0,0.0,88,0.00,,,0.00,VWS V14.01,2013-09-30 14:32:00,
2013-09-30 10:37:00,56.7,53.2,31.87,West,273,0.0,0.0,88,0.00,,,0.00,VWS V14.01,2013-09-30 14:37:00,
2013-09-30 10:43:00,56.8,53.3,31.87,SW,224,0.0,0.0,88,0.00,,,0.00,VWS V14.01,2013-09-30 14:43:00,
2013-09-30 10:48:00,57.2,53.7,31.87,South,186,0.0,6.7,88,0.00,,,0.00,VWS V14.01,2013-09-30 14:48:00,
2013-09-30 10:53:00,57.6,54.0,31.87,South,186,0.0,6.7,88,0.00,,,0.00,VWS V14.01,2013-09-30 14:53:00,
2013-09-30 10:58:00,58.1,54.3,31.87,WNW,287,0.0,0.0,87,0.00,,,0.00,VWS V14.01,2013-09-30 14:58:00,
2013-09-30 11:03:00,58.5,54.6,31.87,West,260,5.4,8.9,87,0.00,,,0.00,VWS V14.01,2013-09-30 15:03:00,
2013-09-30 11:09:00,59.0,54.5,31.87,South,174,0.0,0.0,85,0.00,,,0.00,VWS V14.01,2013-09-30 15:09:00,
2013-09-30 11:15:00,59.5,55.0,31.87,South,174,0.0,6.7,85,0.00,,,0.00,VWS V14.01,2013-09-30 15:15:00,
2013-09-30 11:20:00,60.1,55.2,31.87,SSE,167,0.0,6.7,84,0.00,,,0.00,VWS V14.01,2013-09-30 15:20:00,
2013-09-30 11:26:00,61.0,55.8,31.87,South,181,0.0,5.6,83,0.00,,,0.00,VWS V14.01,2013-09-30 15:26:00,
2013-09-30 11:31:00,61.2,55.6,31.87,West,270,0.0,5.6,82,0.00,,,0.00,VWS V14.01,2013-09-30 15:31:00,
2013-09-30 11:37:00,61.3,55.5,31.87,SSW,202,0.0,0.0,81,0.00,,,0.00,VWS V14.01,2013-09-30 15:37:00,
2013-09-30 11:43:00,61.5,54.6,31.87,ESE,115,4.0,6.7,78,0.00,,,0.00,VWS V14.01,2013-09-30 15:43:00,
2013-09-30 11:48:00,61.9,55.0,31.87,South,191,4.7,7.8,78,0.00,,,0.00,VWS V14.01,2013-09-30 15:48:00,
2013-09-30 11:54:00,63.5,54.7,31.87,SW,230,0.0,0.0,73,0.00,,,0.00,VWS V14.01,2013-09-30 15:54:00,
2013-09-30 12:01:00,64.8,55.2,31.87,ESE,116,3.4,5.6,71,0.00,,,0.00,VWS V14.01,2013-09-30 16:01:00,
2013-09-30 12:06:00,65.8,55.4,31.87,SSW,201,4.0,8.9,69,0.00,,,0.00,VWS V14.01,2013-09-30 16:06:00,
2013-09-30 12:11:00,65.8,51.1,31.87,NW,318,0.0,0.0,59,0.00,,,0.00,VWS V14.01,2013-09-30 16:11:00,
2013-09-30 12:17:00,66.9,52.1,31.87,South,191,4.0,12.3,59,0.00,,,0.00,VWS V14.01,2013-09-30 16:17:00,
2013-09-30 12:22:00,67.8,52.5,31.87,South,186,4.0,10.1,58,0.00,,,0.00,VWS V14.01,2013-09-30 16:22:00,
2013-09-30 12:28:00,68.4,51.1,31.87,NW,304,0.0,0.0,54,0.00,,,0.00,VWS V14.01,2013-09-30 16:28:00,
2013-09-30 12:33:00,68.5,50.2,31.87,SSW,203,5.4,8.9,52,0.00,,,0.00,VWS V14.01,2013-09-30 16:33:00,
2013-09-30 12:39:00,68.9,49.5,31.87,WSW,238,0.0,8.9,50,0.00,,,0.00,VWS V14.01,2013-09-30 16:39:00,
2013-09-30 12:44:00,69.4,50.0,31.87,SSW,207,4.0,6.7,50,0.00,,,0.00,VWS V14.01,2013-09-30 16:44:00,
2013-09-30 12:51:00,69.8,48.1,31.87,SSE,162,5.4,8.9,46,0.00,,,0.00,VWS V14.01,2013-09-30 16:51:00,
2013-09-30 12:57:00,69.8,46.3,31.87,South,170,3.4,10.1,43,0.00,,,0.00,VWS V14.01,2013-09-30 16:57:00,
2013-09-30 13:02:00,70.2,46.6,31.87,SW,227,7.4,12.3,43,0.00,,,0.00,VWS V14.01,2013-09-30 17:02:00,
2013-09-30 13:07:00,70.5,47.0,31.87,SE,127,5.4,13.4,43,0.00,,,0.00,VWS V14.01,2013-09-30 17:07:00,
2013-09-30 13:12:00,71.1,47.5,31.87,South,190,3.4,5.6,43,0.00,,,0.00,VWS V14.01,2013-09-30 17:12:00,
2013-09-30 13:18:00,71.2,47.0,31.87,SE,130,7.4,12.3,42,0.00,,,0.00,VWS V14.01,2013-09-30 17:18:00,
2013-09-30 13:23:00,71.6,47.9,31.87,ESE,109,4.0,10.1,43,0.00,,,0.00,VWS V14.01,2013-09-30 17:23:00,
2013-09-30 13:29:00,71.8,48.1,31.87,South,171,0.0,0.0,43,0.00,,,0.00,VWS V14.01,2013-09-30 17:29:00,
2013-09-30 13:36:00,71.6,45.4,31.87,SSW,202,0.0,5.6,39,0.00,,,0.00,VWS V14.01,2013-09-30 17:36:00,
2013-09-30 13:41:00,72.1,45.8,31.87,SSW,203,0.0,0.0,39,0.00,,,0.00,VWS V14.01,2013-09-30 17:41:00,
2013-09-30 13:46:00,72.5,46.2,31.87,SSE,152,3.4,10.1,39,0.00,,,0.00,VWS V14.01,2013-09-30 17:46:00,
2013-09-30 13:52:00,72.3,44.6,31.87,SSW,212,0.0,0.0,37,0.00,,,0.00,VWS V14.01,2013-09-30 17:52:00,
2013-09-30 13:58:00,72.9,44.4,31.87,SSW,194,4.7,7.8,36,0.00,,,0.00,VWS V14.01,2013-09-30 17:58:00,
2013-09-30 14:03:00,72.7,43.5,31.87,SW,223,0.0,0.0,35,0.00,,,0.00,VWS V14.01,2013-09-30 18:03:00,
2013-09-30 14:09:00,73.0,43.8,31.87,South,188,4.7,10.1,35,0.00,,,0.00,VWS V14.01,2013-09-30 18:09:00,
2013-09-30 14:14:00,72.7,42.7,31.87,SSW,196,0.0,0.0,34,0.00,,,0.00,VWS V14.01,2013-09-30 18:14:00,
2013-09-30 14:21:00,73.2,44.0,31.87,ESE,105,6.0,11.2,35,0.00,,,0.00,VWS V14.01,2013-09-30 18:21:00,
2013-09-30 14:27:00,73.8,45.2,31.87,SE,126,0.0,0.0,36,0.00,,,0.00,VWS V14.01,2013-09-30 18:27:00,
2013-09-30 14:32:00,74.1,44.8,31.87,South,176,4.0,7.8,35,0.00,,,0.00,VWS V14.01,2013-09-30 18:32:00,
2013-09-30 14:38:00,73.9,43.8,31.87,WSW,246,4.7,7.8,34,0.00,,,0.00,VWS V14.01,2013-09-30 18:38:00,
2013-09-30 14:43:00,74.1,43.2,31.87,SSW,194,0.0,6.7,33,0.00,,,0.00,VWS V14.01,2013-09-30 18:43:00,
2013-09-30 14:49:00,74.3,43.4,31.87,ESE,110,4.7,7.8,33,0.00,,,0.00,VWS V14.01,2013-09-30 18:49:00,
2013-09-30 14:54:00,74.5,43.5,31.87,ENE,60,0.0,6.7,33,0.00,,,0.00,VWS V14.01,2013-09-30 18:54:00,
2013-09-30 14:59:00,74.1,41.6,31.87,WNW,284,6.0,10.1,31,0.00,,,0.00,VWS V14.01,2013-09-30 18:59:00,
2013-09-30 15:06:00,73.9,41.4,31.87,ESE,109,4.7,10.1,31,0.00,,,0.00,VWS V14.01,2013-09-30 19:06:00,
2013-09-30 15:12:00,73.8,42.1,31.87,NE,52,3.4,5.6,32,0.00,,,0.00,VWS V14.01,2013-09-30 19:12:00,
2013-09-30 15:17:00,73.8,42.1,31.87,SSE,165,0.0,0.0,32,0.00,,,0.00,VWS V14.01,2013-09-30 19:17:00,
2013-09-30 15:23:00,73.4,41.8,31.87,SSW,202,4.7,10.1,32,0.00,,,0.00,VWS V14.01,2013-09-30 19:23:00,
2013-09-30 15:28:00,72.7,41.2,31.87,WSW,239,0.0,8.9,32,0.00,,,0.00,VWS V14.01,2013-09-30 19:28:00,
2013-09-30 15:33:00,72.1,39.9,31.87,SW,225,4.0,10.1,31,0.00,,,0.00,VWS V14.01,2013-09-30 19:33:00,
2013-09-30 15:38:00,71.8,40.4,31.87,South,175,0.0,8.9,32,0.00,,,0.00,VWS V14.01,2013-09-30 19:38:00,
2013-09-30 15:43:00,71.4,39.2,31.87,SSE,165,0.0,10.1,31,0.00,,,0.00,VWS V14.01,2013-09-30 19:43:00,
2013-09-30 15:48:00,71.1,36.3,31.87,West,266,0.0,6.7,28,0.00,,,0.00,VWS V14.01,2013-09-30 19:48:00,
2013-09-30 15:53:00,70.9,38.8,31.87,South,186,4.7,7.8,31,0.00,,,0.00,VWS V14.01,2013-09-30 19:53:00,
2013-09-30 15:59:00,70.7,36.9,31.87,West,259,0.0,5.6,29,0.00,,,0.00,VWS V14.01,2013-09-30 19:59:00,
2013-09-30 16:04:00,70.3,38.3,31.87,SSW,209,4.0,6.7,31,0.00,,,0.00,VWS V14.01,2013-09-30 20:04:00,
2013-09-30 16:09:00,70.3,39.1,31.87,South,187,4.7,12.3,32,0.00,,,0.00,VWS V14.01,2013-09-30 20:09:00,
2013-09-30 16:14:00,70.2,39.0,31.87,SSE,163,5.4,13.4,32,0.00,,,0.00,VWS V14.01,2013-09-30 20:14:00,
2013-09-30 16:20:00,70.0,38.8,31.87,South,186,0.0,0.0,32,0.00,,,0.00,VWS V14.01,2013-09-30 20:20:00,
2013-09-30 16:26:00,69.6,38.5,31.87,East,99,3.4,5.6,32,0.00,,,0.00,VWS V14.01,2013-09-30 20:26:00,
2013-09-30 16:31:00,69.8,38.6,31.87,WSW,238,0.0,0.0,32,0.00,,,0.00,VWS V14.01,2013-09-30 20:31:00,
2013-09-30 16:36:00,69.6,39.3,31.87,East,80,4.0,6.7,33,0.00,,,0.00,VWS V14.01,2013-09-30 20:36:00,
2013-09-30 16:42:00,69.6,39.3,31.87,SW,233,0.0,0.0,33,0.00,,,0.00,VWS V14.01,2013-09-30 20:42:00,
2013-09-30 16:48:00,69.4,39.1,31.87,SW,236,0.0,0.0,33,0.00,,,0.00,VWS V14.01,2013-09-30 20:48:00,
2013-09-30 16:53:00,69.3,39.0,31.87,SE,138,4.0,6.7,33,0.00,,,0.00,VWS V14.01,2013-09-30 20:53:00,
2013-09-30 16:58:00,69.3,39.0,31.87,SW,233,0.0,5.6,33,0.00,,,0.00,VWS V14.01,2013-09-30 20:58:00,
2013-09-30 17:04:00,69.1,38.8,31.87,NW,319,0.0,0.0,33,0.00,,,0.00,VWS V14.01,2013-09-30 21:04:00,
2013-09-30 17:09:00,69.1,39.6,31.87,East,92,0.0,0.0,34,0.00,,,0.00,VWS V14.01,2013-09-30 21:09:00,
2013-09-30 17:14:00,68.7,39.2,31.87,South,190,0.0,0.0,34,0.00,,,0.00,VWS V14.01,2013-09-30 21:14:00,
2013-09-30 17:20:00,69.1,38.8,31.87,NW,305,0.0,0.0,33,0.00,,,0.00,VWS V14.01,2013-09-30 21:20:00,
2013-09-30 17:26:00,68.9,38.6,31.87,SSW,192,4.0,8.9,33,0.00,,,0.00,VWS V14.01,2013-09-30 21:26:00,
2013-09-30 17:31:00,68.4,38.2,31.87,SSE,156,5.4,10.1,33,0.00,,,0.00,VWS V14.01,2013-09-30 21:31:00,
2013-09-30 17:37:00,68.4,38.9,31.87,SSW,197,0.0,0.0,34,0.00,,,0.00,VWS V14.01,2013-09-30 21:37:00,
2013-09-30 17:43:00,68.0,38.6,31.87,SE,140,0.0,0.0,34,0.00,,,0.00,VWS V14.01,2013-09-30 21:43:00,
2013-09-30 17:48:00,68.0,38.6,31.87,SSW,194,0.0,0.0,34,0.00,,,0.00,VWS V14.01,2013-09-30 21:48:00,
2013-09-30 17:53:00,68.0,38.6,31.87,South,179,0.0,0.0,34,0.00,,,0.00,VWS V14.01,2013-09-30 21:53:00,
2013-09-30 17:58:00,68.0,38.6,31.87,SSW,209,0.0,6.7,34,0.00,,,0.00,VWS V14.01,2013-09-30 21:58:00,
2013-09-30 18:03:00,68.0,38.6,31.87,WNW,293,0.0,0.0,34,0.00,,,0.00,VWS V14.01,2013-09-30 22:03:00,
2013-09-30 18:08:00,67.8,39.2,31.87,NW,316,0.0,7.8,35,0.00,,,0.00,VWS V14.01,2013-09-30 22:08:00,
2013-09-30 18:13:00,67.5,38.9,31.87,SW,227,0.0,0.0,35,0.00,,,0.00,VWS V14.01,2013-09-30 22:13:00,
2013-09-30 18:19:00,66.9,39.1,31.87,North,353,0.0,0.0,36,0.00,,,0.00,VWS V14.01,2013-09-30 22:19:00,
2013-09-30 18:26:00,66.4,39.3,31.87,SSE,149,0.0,0.0,37,0.00,,,0.00,VWS V14.01,2013-09-30 22:26:00,
2013-09-30 18:31:00,65.8,39.5,31.87,SSE,149,0.0,0.0,38,0.00,,,0.00,VWS V14.01,2013-09-30 22:31:00,
2013-09-30 18:36:00,65.5,39.9,31.87,SSE,149,0.0,0.0,39,0.00,,,0.00,VWS V14.01,2013-09-30 22:36:00,
2013-09-30 18:42:00,65.1,40.2,31.87,SSE,149,0.0,0.0,40,0.00,,,0.00,VWS V14.01,2013-09-30 22:42:00,
2013-09-30 18:47:00,64.9,40.1,31.87,SSE,149,0.0,0.0,40,0.00,,,0.00,VWS V14.01,2013-09-30 22:47:00,
2013-09-30 18:52:00,64.8,40.5,31.87,SSE,149,0.0,0.0,41,0.00,,,0.00,VWS V14.01,2013-09-30 22:52:00,
2013-09-30 18:58:00,64.4,40.8,31.87,SSE,149,0.0,0.0,42,0.00,,,0.00,VWS V14.01,2013-09-30 22:58:00,
2013-09-30 19:04:00,63.9,41.0,31.87,SSE,149,0.0,0.0,43,0.00,,,0.00,VWS V14.01,2013-09-30 23:04:00,
2013-09-30 19:10:00,63.5,41.2,31.87,SSE,149,0.0,0.0,44,0.00,,,0.00,VWS V14.01,2013-09-30 23:10:00,
2013-09-30 19:16:00,63.0,40.7,31.87,SSE,149,0.0,0.0,44,0.00,,,0.00,VWS V14.01,2013-09-30 23:16:00,
2013-09-30 19:22:00,62.6,40.4,31.87,SSE,149,0.0,0.0,44,0.00,,,0.00,VWS V14.01,2013-09-30 23:22:00,
2013-09-30 19:27:00,62.1,40.5,31.87,SSE,149,0.0,0.0,45,0.00,,,0.00,VWS V14.01,2013-09-30 23:27:00,
2013-09-30 19:32:00,61.5,40.6,31.87,SSE,149,0.0,0.0,46,0.00,,,0.00,VWS V14.01,2013-09-30 23:32:00,
2013-09-30 19:38:00,61.0,40.6,31.87,SSE,149,0.0,0.0,47,0.00,,,0.00,VWS V14.01,2013-09-30 23:38:00,
2013-09-30 19:43:00,60.6,40.8,31.87,SSE,149,0.0,0.0,48,0.00,,,0.00,VWS V14.01,2013-09-30 23:43:00,
2013-09-30 19:49:00,60.3,41.0,31.87,SSE,149,0.0,0.0,49,0.00,,,0.00,VWS V14.01,2013-09-30 23:49:00,
2013-09-30 19:55:00,59.9,41.2,31.87,SSE,149,0.0,0.0,50,0.00,,,0.00,VWS V14.01,2013-09-30 23:55:00,
2013-09-30 20:01:00,59.5,41.9,31.87,SSE,149,0.0,0.0,52,0.00,,,0.00,VWS V14.01,2013-10-01 00:01:00,
2013-09-30 20:06:00,59.4,42.2,31.87,SSE,149,0.0,0.0,53,0.00,,,0.00,VWS V14.01,2013-10-01 00:06:00,
2013-09-30 20:11:00,59.4,43.2,31.87,SSE,149,0.0,0.0,55,0.00,,,0.00,VWS V14.01,2013-10-01 00:11:00,
2013-09-30 20:16:00,59.0,43.3,31.87,SSE,149,0.0,0.0,56,0.00,,,0.00,VWS V14.01,2013-10-01 00:16:00,
2013-09-30 20:21:00,58.8,43.6,31.87,SSE,149,0.0,0.0,57,0.00,,,0.00,VWS V14.01,2013-10-01 00:21:00,
2013-09-30 20:27:00,58.5,43.8,31.87,SSE,149,0.0,0.0,58,0.00,,,0.00,VWS V14.01,2013-10-01 00:27:00,
2013-09-30 20:32:00,58.5,43.8,31.87,SSE,149,0.0,0.0,58,0.00,,,0.00,VWS V14.01,2013-10-01 00:32:00,
2013-09-30 20:38:00,58.1,43.4,31.87,SSE,149,0.0,0.0,58,0.00,,,0.00,VWS V14.01,2013-10-01 00:38:00,
2013-09-30 20:43:00,57.7,43.5,31.87,SSE,149,0.0,0.0,59,0.00,,,0.00,VWS V14.01,2013-10-01 00:43:00,
2013-09-30 20:49:00,57.6,43.4,31.87,SSE,149,0.0,0.0,59,0.00,,,0.00,VWS V14.01,2013-10-01 00:49:00,
2013-09-30 20:54:00,57.4,43.2,31.87,SSE,149,0.0,0.0,59,0.00,,,0.00,VWS V14.01,2013-10-01 00:54:00,
2013-09-30 21:00:00,57.2,43.5,31.87,SSE,149,0.0,0.0,60,0.00,,,0.00,VWS V14.01,2013-10-01 01:00:00,
2013-09-30 21:06:00,56.8,43.5,31.87,SSE,149,0.0,0.0,61,0.00,,,0.00,VWS V14.01,2013-10-01 01:06:00,
2013-09-30 21:11:00,56.7,43.4,31.87,SSE,166,0.0,0.0,61,0.00,,,0.00,VWS V14.01,2013-10-01 01:11:00,
2013-09-30 21:17:00,56.7,43.8,31.87,SSE,147,0.0,0.0,62,0.00,,,0.00,VWS V14.01,2013-10-01 01:17:00,
2013-09-30 21:22:00,56.8,44.4,31.87,SSE,160,0.0,0.0,63,0.00,,,0.00,VWS V14.01,2013-10-01 01:22:00,
2013-09-30 21:28:00,57.2,44.7,31.87,SE,124,0.0,6.7,63,0.00,,,0.00,VWS V14.01,2013-10-01 01:28:00,
2013-09-30 21:33:00,57.6,45.5,31.87,SE,138,0.0,0.0,64,0.00,,,0.00,VWS V14.01,2013-10-01 01:33:00,
2013-09-30 21:38:00,57.6,45.5,31.87,East,97,0.0,0.0,64,0.00,,,0.00,VWS V14.01,2013-10-01 01:38:00,
2013-09-30 21:43:00,57.6,45.5,31.87,ESE,114,0.0,0.0,64,0.00,,,0.00,VWS V14.01,2013-10-01 01:43:00,
2013-09-30 21:48:00,57.7,45.7,31.87,East,91,0.0,0.0,64,0.00,,,0.00,VWS V14.01,2013-10-01 01:48:00,
2013-09-30 21:54:00,57.7,45.7,31.87,ESE,113,0.0,0.0,64,0.00,,,0.00,VWS V14.01,2013-10-01 01:54:00,
2013-09-30 21:59:00,57.7,46.1,31.87,ESE,113,0.0,0.0,65,0.00,,,0.00,VWS V14.01,2013-10-01 01:59:00,
2013-09-30 22:05:00,57.9,46.2,31.87,SSE,151,0.0,0.0,65,0.00,,,0.00,VWS V14.01,2013-10-01 02:05:00,
2013-09-30 22:10:00,57.9,46.2,31.87,East,99,0.0,0.0,65,0.00,,,0.00,VWS V14.01,2013-10-01 02:10:00,
2013-09-30 22:16:00,57.9,46.2,31.87,ESE,114,0.0,0.0,65,0.00,,,0.00,VWS V14.01,2013-10-01 02:16:00,
2013-09-30 22:21:00,57.9,46.2,31.87,ESE,106,0.0,0.0,65,0.00,,,0.00,VWS V14.01,2013-10-01 02:21:00,
2013-09-30 22:26:00,57.9,46.2,31.87,SE,142,0.0,0.0,65,0.00,,,0.00,VWS V14.01,2013-10-01 02:26:00,
2013-09-30 22:32:00,57.9,46.6,31.87,ESE,118,0.0,0.0,66,0.00,,,0.00,VWS V14.01,2013-10-01 02:32:00,
2013-09-30 22:38:00,57.9,46.6,31.87,ESE,118,0.0,0.0,66,0.00,,,0.00,VWS V14.01,2013-10-01 02:38:00,
2013-09-30 22:44:00,57.7,46.5,31.87,ESE,118,0.0,0.0,66,0.00,,,0.00,VWS V14.01,2013-10-01 02:44:00,
2013-09-30 22:51:00,57.7,46.5,31.87,ESE,118,0.0,5.6,66,0.00,,,0.00,VWS V14.01,2013-10-01 02:51:00,
2013-09-30 22:56:00,57.6,46.3,31.87,ESE,118,0.0,0.0,66,0.00,,,0.00,VWS V14.01,2013-10-01 02:56:00,
2013-09-30 23:01:00,57.4,46.1,31.87,ESE,118,0.0,0.0,66,0.00,,,0.00,VWS V14.01,2013-10-01 03:01:00,
2013-09-30 23:06:00,57.2,46.0,31.87,ESE,118,0.0,0.0,66,0.00,,,0.00,VWS V14.01,2013-10-01 03:06:00,
2013-09-30 23:11:00,57.0,46.2,31.87,ESE,118,0.0,0.0,67,0.00,,,0.00,VWS V14.01,2013-10-01 03:11:00,
2013-09-30 23:17:00,56.8,46.0,31.87,ESE,118,0.0,0.0,67,0.00,,,0.00,VWS V14.01,2013-10-01 03:17:00,
2013-09-30 23:22:00,56.7,45.8,31.87,ESE,118,0.0,0.0,67,0.00,,,0.00,VWS V14.01,2013-10-01 03:22:00,
2013-09-30 23:28:00,56.5,46.1,31.87,ESE,118,0.0,0.0,68,0.00,,,0.00,VWS V14.01,2013-10-01 03:28:00,
2013-09-30 23:33:00,56.5,46.1,31.87,ESE,118,0.0,0.0,68,0.00,,,0.00,VWS V14.01,2013-10-01 03:33:00,
2013-09-30 23:38:00,56.3,46.3,31.87,ESE,118,0.0,0.0,69,0.00,,,0.00,VWS V14.01,2013-10-01 03:38:00,
2013-09-30 23:44:00,56.3,46.3,31.87,ESE,118,0.0,0.0,69,0.00,,,0.00,VWS V14.01,2013-10-01 03:44:00,
2013-09-30 23:51:00,56.5,46.5,31.87,ESE,118,0.0,0.0,69,0.00,,,0.00,VWS V14.01,2013-10-01 03:51:00,
2013-09-30 23:57:00,56.7,47.0,31.87,ESE,118,0.0,0.0,70,0.00,,,0.00,VWS V14.01,2013-10-01 03:57:00,